Regional Weather Roundup
Issued by NWS Sioux Falls, SD

Home | Current Version | Previous Version | Graphics & Text | Print | Product List | Glossary Off
Versions: 1 2 3 4 5 6 7 8 9 10 11 12 13 14 15 16 17 18 19 20 21 22 23 24 25 26 27 28 29 30 31 32 33 34 35 36 37 38 39 40 41 42 43 44 45 46 47 48 49 50

000
ASUS43 KFSD 252310
RWRFSD

WEATHER ROUNDUP FOR SE SOUTH DAKOTA/SW MINNESOTA/NW IOWA
NATIONAL WEATHER SERVICE SIOUX FALLS SD
600 PM CDT MON MAY 25 2015

NOTE: "FAIR" INDICATES FEW OR NO CLOUDS BELOW 12,000 FEET WITH NO
SIGNIFICANT WEATHER AND OR OBSTRUCTIONS TO VISIBILITY.


SDZ038>040-050-052>070-260000-
SOUTHEAST SOUTH DAKOTA

CITY           SKY/WX    TMP DP  RH WIND       PRES   REMARKS
BROOKINGS      PTSUNNY   64  57  77 NW8       29.79S
CHAMBERLAIN    CLOUDY    63  56  77 NE10      29.79S
HURON          CLOUDY    66  54  65 NE14G23   29.79F
MADISON        MOCLDY    64  63  94 N9        29.78F
MITCHELL       CLOUDY    68  58  70 N10       29.78F
SIOUX FALLS    TSTM      65  59  81 NW6       29.76F
WINNER         LGT RAIN  60  57  89 N5        29.80F FOG
YANKTON        PTSUNNY   70  57  64 N14       29.73F
$$

MNZ071-072-080-081-089-090-097-098-260000-
SOUTHWEST MINNESOTA

CITY           SKY/WX    TMP DP  RH WIND       PRES   REMARKS
FAIRMONT       MOSUNNY   77  54  44 SW17      29.74S
JACKSON        SUNNY     75  59  57 SW14G23   29.76S
LUVERNE        MOSUNNY   70  61  73 NW10      29.78R THUNDER
MARSHALL       MOSUNNY   70  54  56 W17       29.75S
MONTEVIDEO     MOSUNNY   66  57  72 NW10      29.75R
PIPESTONE      MOSUNNY   66  57  72 NW9G16    29.78S
REDWOOD FALLS  MOSUNNY   71  58  63 W14G24    29.74R
TRACY          MOSUNNY   70  59  68 W10G21    29.76S
WINDOM         MOSUNNY   73  55  53 W16G23    29.75S
WORTHINGTON    PTSUNNY   70  59  68 W9        29.76S
$$

IAZ001>003-012>014-020>022-031-032-NEZ013-014-SDZ071-260000-
NORTHWEST IOWA

CITY           SKY/WX    TMP DP  RH WIND       PRES   REMARKS
CHEROKEE       MOSUNNY   76  55  48 S12G22    29.75F
DENISON        PTSUNNY   75  59  57 S12       29.73F
ESTHERVILLE    MOSUNNY   75  55  49 SW15G26   29.74S
LE MARS        MOSUNNY   77  55  47 SW16G23   29.74F
ORANGE CITY    MOSUNNY   73  54  49 SW12      29.74F
SHELDON        MOSUNNY   77 -35   1 SW14G22   29.73F
SIOUX CITY     MOSUNNY   80  55  42 SW14      29.73F
SPENCER        MOSUNNY   79  54  41 SW14G25   29.75S
STORM LAKE     SUNNY     77  54  44 SW15G22   29.76F
$$

ABBREVIATIONS USED IN REMARKS
   TC - TEMPERATURE IN CELSIUS
  WCI - WIND CHILL INDEX
   HX - HEAT INDEX
  VSB - VISIBILITY



USA.gov is the U.S. government's official web portal to all federal, state and local government web resources and services.